Dewpoint
44 33 32 30 22 23 20 22 40 40 46 51 52 52 52 53 50 49 65 67 69 69 69 70 70 71 71 72 72 72 72 72 71 71 70 70 69 68 67 67 69 69 68 68 68 68 68 67 66
41 34 32 23 20 18 30 33 43 45 49 50 50 51 53 53 59 63 64 67 68 69 69 70 70 71 71 71 71 71 71 71 71 70 69 68 68 68 68 68 69 68 67 68 68 67 66 65 65
37 33 19 17 18 17 33 31 33 43 48 46 47 51 51 52 60 61 65 66 67 68 68 69 69 70 71 71 71 71 71 71 71 70 69 68 68 68 68 67 68 67 68 68 67 67 65 64 64
33 22 16 14 13 15 34 33 39 43 47 49 49 48 49 53 56 63 65 66 65 65 66 67 68 69 70 70 70 70 70 70 70 70 69 68 68 67 67 67 66 65 65 66 65 64 64 64 65
32 23 16 13 22 32 33 34 35 41 47 49 48 47 48 59 63 63 63 63 63 63 64 65 66 68 69 69 69 69 69 69 69 69 69 68 67 67 66 66 65 65 64 64 65 64 64 64 64
21 20 16 19 32 32 28 32 38 47 49 48 47 47 47 58 60 61 62 61 61 61 63 64 66 66 67 67 67 67 67 67 67 68 68 67 67 66 66 66 65 65 65 64 64 63 62 62 62
21 20 16 23 34 32 25 27 37 47 47 49 50 47 49 48 57 58 59 59 59 61 62 63 64 65 65 65 65 65 65 65 66 66 66 66 66 66 66 66 65 64 64 63 62 61 62 61 61
23 18 17 23 36 27 20 22 23 32 38 50 51 49 47 49 52 54 55 55 57 58 60 61 62 62 62 63 64 64 64 64 64 64 64 64 64 65 65 65 65 64 64 63 62 62 61 60 60
20 16 13 13 18 18 15 19 21 34 43 46 46 50 50 47 49 51 51 52 54 56 57 59 61 61 61 62 63 64 64 64 63 63 64 63 63 63 63 63 64 64 63 63 62 61 60 59 59
19 15 14 13 16 11 9 17 20 38 47 49 50 51 50 45 47 48 48 49 52 55 57 58 59 59 60 59 62 62 62 62 61 61 62 62 61 62 63 63 63 63 62 62 61 62 61 60 57
13 7 12 11 9 11 13 17 19 36 44 49 49 49 47 44 44 45 47 49 50 54 56 57 59 60 59 58 61 60 61 62 61 61 61 61 62 61 62 60 60 59 61 60 60 60 59 58 56
6 11 10 14 10 10 10 11 15 24 37 50 49 49 48 45 44 44 45 48 51 54 56 58 58 59 58 58 60 61 61 61 62 61 60 59 59 58 59 59 59 59 59 58 58 58 58 57 56
8 10 10 17 16 9 8 11 17 19 38 50 49 49 48 45 45 45 45 47 51 54 57 57 56 55 53 55 56 57 58 60 61 60 59 57 57 55 55 54 54 54 52 53 52 52 51 50 50
11 9 9 14 17 17 15 17 15 18 40 48 48 47 47 46 45 45 45 46 50 54 56 56 55 55 52 54 55 54 58 57 56 59 58 56 57 54 54 52 53 52 52 52 51 51 50 51 51
13 11 14 18 18 16 19 17 13 16 41 46 46 47 47 47 46 45 45 45 50 54 55 56 56 54 55 53 53 53 56 54 57 56 56 56 55 54 53 52 52 52 53 52 52 51 52 51 51
18 18 16 18 20 22 18 16 17 16 27 38 43 44 44 44 44 44 44 45 50 53 55 56 57 57 58 57 54 51 52 51 52 54 54 54 54 53 52 51 50 51 52 51 51 51 50 50 50
18 13 18 20 21 22 20 18 20 18 19 22 28 41 43 45 46 48 50 52 53 55 58 60 59 59 60 59 57 53 52 50 51 52 52 52 52 52 50 50 50 50 49 49 48 47 49 48 47
17 13 19 18 18 18 18 21 22 24 33 38 41 42 43 44 45 47 47 49 49 50 52 55 56 59 59 58 56 52 50 47 49 49 48 49 51 50 49 48 47 47 47 46 45 45 45 46 45
16 18 18 18 19 16 18 21 25 34 38 39 40 42 43 44 46 47 48 49 49 52 50 51 52 53 53 52 51 49 48 46 47 48 49 49 48 47 46 45 45 45 45 45 45 45 44 43 45
21 22 21 21 22 17 21 22 26 32 36 39 40 41 43 44 44 45 47 51 49 51 51 47 45 46 46 47 47 48 48 47 45 46 45 44 44 43 41 42 43 43 43 43 43 43 43 44 45
29 25 26 23 24 23 21 22 28 31 34 37 40 42 43 43 44 45 46 48 47 46 45 45 44 45 46 46 46 46 47 45 43 43 42 43 43 42 41 41 42 43 44 43 43 43 42 42 43
28 30 28 25 23 17 22 18 24 29 32 35 38 41 42 43 44 45 45 45 44 44 44 44 44 45 45 46 45 44 44 42 43 42 43 43 42 41 41 42 44 44 44 43 43 43 42 42 41
27 30 29 29 26 25 25 20 22 32 32 34 36 39 41 43 44 44 44 45 45 44 44 44 44 44 44 44 44 45 43 44 44 43 43 42 41 41 43 44 43 43 43 42 41 41 40 41 39
31 31 32 31 29 24 27 27 22 29 33 35 37 38 40 41 43 43 44 45 45 45 44 44 42 42 43 44 44 43 43 42 41 42 42 41 40 42 43 42 42 42 41 41 41 40 39 38 38
29 30 26 26 27 25 32 32 33 35 35 36 37 38 39 40 41 43 44 44 45 44 43 42 40 40 44 44 43 42 42 41 41 42 40 39 39 41 41 41 40 40 40 40 39 39 38 37 36
29 31 27 22 24 24 29 29 30 35 37 38 38 38 38 38 39 40 41 43 41 41 41 41 40 41 43 39 37 37 38 39 40 40 40 40 40 41 41 40 39 39 39 38 38 37 37 37 35
27 29 28 27 29 25 27 30 31 35 36 37 39 41 42 39 38 39 41 40 39 40 41 40 40 36 34 34 34 35 35 36 39 39 39 39 39 40 40 39 39 39 38 38 37 37 36 36 36
28 28 26 29 21 22 24 28 31 33 35 36 35 37 38 39 39 39 39 40 40 40 39 37 33 31 31 32 33 34 35 39 38 38 38 37 38 38 38 38 38 37 39 39 38 37 37 36 36
27 28 28 28 28 24 22 22 32 33 34 34 37 38 39 37 37 39 39 39 38 37 33 30 30 29 29 31 32 33 34 37 38 38 38 38 38 38 38 38 38 38 37 37 36 35 35 34 31
28 29 30 26 22 28 26 23 34 35 35 35 35 37 38 38 38 38 37 36 36 36 31 29 29 29 29 30 32 32 33 37 38 38 38 38 36 38 38 38 37 36 36 35 32 30 29 27 26
Lifted_Index
10 9 6 4 2 1 0 -0 -0 -1 -1 -1 -2 -2 -2 -2 -2 -3 -4 -4 -5 -5 -6 -6 -6 -6 -7 -7 -7 -7 -7 -7 -7 -6 -6 -5 -5 -4 -4 -4 -5 -5 -5 -5 -5 -5 -5 -4 -3
8 7 5 4 2 1 -0 -1 -0 -0 -1 -1 -1 -2 -2 -3 -3 -3 -4 -4 -5 -5 -5 -6 -6 -6 -6 -6 -7 -6 -6 -6 -6 -6 -5 -5 -4 -4 -4 -4 -4 -5 -5 -5 -5 -4 -4 -3 -3
6 6 5 4 2 0 -1 -1 0 0 -0 -1 -1 -2 -2 -3 -3 -3 -4 -4 -4 -5 -5 -5 -5 -6 -6 -6 -6 -6 -6 -6 -6 -5 -5 -4 -4 -4 -4 -4 -4 -4 -4 -4 -4 -3 -2 -2 -1
5 5 4 3 1 0 -1 -0 0 0 0 -0 -1 -1 -2 -2 -3 -3 -3 -4 -4 -4 -4 -4 -4 -4 -5 -5 -5 -5 -5 -5 -5 -5 -5 -4 -4 -4 -3 -3 -3 -3 -3 -3 -3 -2 -2 -1 -1
4 4 2 1 -0 -1 -1 -0 0 -0 -0 -0 -0 -1 -1 -2 -3 -3 -3 -3 -3 -2 -2 -2 -2 -3 -3 -3 -4 -4 -4 -4 -4 -4 -4 -4 -3 -3 -3 -3 -2 -2 -2 -2 -2 -1 -1 -1 -1
3 3 2 0 -1 -0 0 0 0 -0 -0 -0 -0 -0 -1 -2 -3 -3 -2 -2 -1 -1 -0 -1 -1 -1 -1 -2 -2 -2 -2 -3 -3 -3 -3 -3 -3 -2 -2 -2 -2 -2 -2 -2 -1 -1 -0 -0 0
3 3 2 0 -0 1 1 1 0 -0 -1 -1 -1 -1 -1 -1 -2 -2 -1 0 1 1 1 0 0 0 -0 -0 -0 -1 -1 -1 -2 -2 -2 -2 -2 -2 -2 -2 -2 -2 -2 -1 -1 0 1 1 1
3 2 1 1 1 1 2 2 1 0 -1 -1 -2 -1 -1 -1 -1 0 1 2 2 2 1 1 1 1 1 1 0 0 -0 -0 -1 -1 -1 -1 -1 -2 -2 -2 -2 -2 -1 -1 0 1 1 2 2
3 2 1 1 1 1 2 2 2 0 -1 -1 -2 -1 -1 -0 1 1 2 2 2 1 1 1 1 1 1 1 0 0 -0 -0 -1 -1 -1 -1 -1 -2 -2 -2 -1 -1 -1 -0 0 1 2 2 3
2 2 1 1 2 2 2 2 2 0 -1 -2 -2 -2 -1 0 1 2 2 2 1 0 -0 0 0 0 1 0 -0 -0 -1 -1 -1 -1 -2 -2 -2 -2 -2 -1 -1 -1 -0 0 0 1 1 2 2
2 2 2 2 2 2 2 3 3 1 -1 -2 -2 -2 -1 1 2 2 2 1 1 0 -0 -0 -0 -0 -0 -0 -1 -1 -2 -2 -2 -2 -2 -2 -2 -2 -2 -1 -0 0 0 0 0 1 1 2 2
1 1 2 2 2 2 2 3 3 2 0 -2 -2 -1 -0 1 2 2 2 1 1 -0 -1 -1 -1 -1 -1 -1 -1 -2 -2 -2 -2 -2 -2 -2 -1 -1 -1 -0 0 1 1 1 1 2 2 3 3
1 1 1 2 2 2 3 3 4 3 0 -1 -1 -1 -0 1 2 2 2 1 0 -1 -1 -1 -1 -0 -0 -0 -1 -1 -2 -2 -3 -2 -2 -1 -1 -0 0 1 1 2 2 3 3 3 4 4 4
2 1 2 2 2 3 3 3 4 3 0 -1 -1 -1 -0 0 1 1 1 1 0 -1 -1 -1 -1 -0 -0 -0 -0 -1 -1 -2 -2 -2 -2 -1 -0 0 1 1 2 2 3 3 4 4 4 5 4
2 2 2 2 2 3 3 3 4 3 1 -0 -0 -0 0 0 1 1 1 1 0 -1 -1 -2 -1 -1 -1 -0 -0 -1 -1 -1 -1 -1 -1 -1 -0 0 1 2 2 3 3 4 4 5 5 5 5
2 2 2 2 2 2 3 3 4 3 2 1 1 1 1 1 1 1 1 1 0 -1 -1 -2 -2 -2 -2 -1 -1 -1 -1 -1 -0 -0 -0 0 1 1 1 2 3 3 4 5 5 5 5 6 6
2 2 2 2 2 2 3 3 3 4 3 3 3 2 2 1 1 1 1 1 -0 -1 -2 -2 -2 -3 -2 -2 -1 -1 -0 0 1 1 1 1 1 2 2 2 3 4 5 5 5 6 6 7 7
1 2 2 2 1 2 2 3 3 4 3 3 3 2 1 1 0 0 0 0 -0 -1 -2 -2 -2 -2 -2 -2 -1 -1 -0 1 1 2 2 2 2 3 3 3 4 4 5 5 6 7 8 9 9
1 1 1 2 2 2 2 2 3 3 3 2 2 1 1 0 0 -0 -0 -0 -1 -1 -1 -1 -1 -1 -1 -1 -0 -0 0 1 2 2 3 3 3 4 4 4 4 5 5 6 7 8 9 9 9
0 1 1 2 2 2 2 2 2 2 2 2 2 1 0 -0 -1 -1 -1 -1 -1 -0 0 1 1 1 2 2 1 1 1 2 2 2 3 3 4 4 5 5 5 6 7 8 8 9 9 9 9
1 1 1 1 1 1 2 2 2 2 3 2 2 1 0 -0 -0 -0 -0 0 1 1 2 3 3 3 3 3 3 2 2 2 2 3 3 4 5 6 6 6 7 8 8 9 9 9 9 9 9
1 1 1 1 1 1 2 2 2 3 3 3 2 2 1 0 1 1 1 2 2 2 3 3 3 3 3 3 3 3 4 4 3 4 4 5 6 6 7 7 8 8 9 10 10 10 10 9 9
2 2 2 2 1 1 1 2 2 2 2 2 2 2 1 1 1 2 2 2 2 2 2 2 2 2 2 3 3 4 4 5 5 5 5 6 6 7 7 8 8 9 10 10 10 10 9 9 9
2 2 2 1 1 1 1 1 1 1 2 2 2 2 1 1 1 2 2 2 2 2 2 2 2 2 3 3 3 4 5 5 6 6 6 7 7 8 8 9 9 10 10 10 10 9 9 9 9
2 2 1 1 1 1 1 1 1 1 1 2 2 2 2 2 2 2 2 2 2 2 2 2 2 3 3 4 4 5 6 6 7 7 8 9 9 9 9 10 9 9 10 10 9 9 9 9 9
2 1 1 1 1 1 1 1 1 1 1 1 1 1 2 2 2 2 2 2 2 2 2 2 3 4 4 4 5 5 6 7 8 9 10 10 10 10 10 10 10 9 9 9 9 9 9 9 9
2 2 2 1 1 1 1 2 1 1 1 1 1 1 2 2 2 2 2 2 2 2 3 3 4 4 5 5 6 6 8 9 10 11 11 10 10 10 10 10 9 9 9 8 8 8 7 7 7
2 2 2 2 1 1 1 2 2 1 1 1 1 1 1 2 2 2 2 2 3 3 4 4 5 5 6 6 7 8 9 10 11 11 10 10 9 9 9 9 9 8 7 7 6 6 6 6 5
3 3 3 2 2 1 2 2 2 2 2 2 2 1 1 1 1 1 2 2 3 4 4 5 5 6 7 8 8 9 10 11 11 10 10 9 8 8 9 8 8 7 6 5 5 5 5 5 5
3 3 3 2 2 2 2 3 3 3 2 2 2 1 1 1 1 1 2 3 3 4 4 5 5 6 7 8 9 10 11 11 10 10 9 8 8 8 8 8 7 6 5 5 5 5 5 5 5